Time,TemperatureF,DewpointF,PressureIn,WindDirection,WindDirectionDegrees,WindSpeedMPH,WindSpeedGustMPH,Humidity,HourlyPrecipIn,Conditions,Clouds,dailyrainin,SoftwareType,DateUTC
2013-01-11 00:00:00,41.0,-99.9,30.14,NNW,340,13.0,-999.0,-999,-99.99,,,-99.99,,2013-01-11 08:00:00,
2013-01-11 00:32:00,41.0,-99.9,30.14,NNW,340,13.0,-999.0,-999,-99.99,,,-99.99,,2013-01-11 08:32:00,
2013-01-11 00:42:00,41.0,-99.9,30.14,NNW,340,13.0,-999.0,-999,-99.99,,,-99.99,,2013-01-11 08:42:00,
2013-01-11 00:53:00,41.0,-99.9,30.14,NNW,340,13.0,-999.0,-999,-99.99,,,-99.99,,2013-01-11 08:53:00,
2013-01-11 01:00:00,41.0,-99.9,30.16,NNW,330,13.0,-999.0,-999,-99.99,,,-99.99,,2013-01-11 09:00:00,
2013-01-11 01:32:00,41.0,-99.9,30.16,NNW,330,13.0,-999.0,-999,-99.99,,,-99.99,,2013-01-11 09:32:00,
2013-01-11 01:43:00,41.0,-99.9,30.16,NNW,330,13.0,-999.0,-999,-99.99,,,-99.99,,2013-01-11 09:43:00,
2013-01-11 01:53:00,41.0,-99.9,30.16,NNW,330,13.0,-999.0,-999,-99.99,,,-99.99,,2013-01-11 09:53:00,
2013-01-11 02:00:00,40.0,-99.9,30.16,North,360,11.0,-999.0,-999,-99.99,,,-99.99,,2013-01-11 10:00:00,
2013-01-11 02:32:00,40.0,-99.9,30.16,North,360,11.0,-999.0,-999,-99.99,,,-99.99,,2013-01-11 10:32:00,
2013-01-11 02:43:00,40.0,-99.9,30.16,North,360,11.0,-999.0,-999,-99.99,,,-99.99,,2013-01-11 10:43:00,
2013-01-11 02:53:00,40.0,-99.9,30.16,North,360,11.0,-999.0,-999,-99.99,,,-99.99,,2013-01-11 10:53:00,
2013-01-11 03:00:00,40.0,-99.9,30.17,NNE,20,11.0,-999.0,-999,-99.99,,,-99.99,,2013-01-11 11:00:00,
2013-01-11 03:33:00,40.0,-99.9,30.17,NNE,20,11.0,-999.0,-999,-99.99,,,-99.99,,2013-01-11 11:33:00,
2013-01-11 03:43:00,40.0,-99.9,30.17,NNE,20,11.0,-999.0,-999,-99.99,,,-99.99,,2013-01-11 11:43:00,
2013-01-11 03:53:00,40.0,-99.9,30.17,NNE,20,11.0,-999.0,-999,-99.99,,,-99.99,,2013-01-11 11:53:00,
2013-01-11 04:00:00,40.0,-99.9,30.19,NNE,20,7.0,-999.0,-999,-99.99,,,-99.99,,2013-01-11 12:00:00,
2013-01-11 04:33:00,40.0,-99.9,30.19,NNE,20,7.0,-999.0,-999,-99.99,,,-99.99,,2013-01-11 12:33:00,
2013-01-11 04:43:00,40.0,-99.9,30.19,NNE,20,7.0,-999.0,-999,-99.99,,,-99.99,,2013-01-11 12:43:00,
2013-01-11 04:53:00,40.0,-99.9,30.19,NNE,20,7.0,-999.0,-999,-99.99,,,-99.99,,2013-01-11 12:53:00,
2013-01-11 05:00:00,39.0,-99.9,30.20,NNE,30,11.0,-999.0,-999,-99.99,,,-99.99,,2013-01-11 13:00:00,
2013-01-11 05:33:00,39.0,-99.9,30.20,NNE,30,11.0,-999.0,-999,-99.99,,,-99.99,,2013-01-11 13:33:00,
2013-01-11 05:43:00,39.0,-99.9,30.20,NNE,30,11.0,-999.0,-999,-99.99,,,-99.99,,2013-01-11 13:43:00,
2013-01-11 05:53:00,39.0,-99.9,30.20,NNE,30,11.0,-999.0,-999,-99.99,,,-99.99,,2013-01-11 13:53:00,
2013-01-11 06:00:00,39.0,-99.9,30.22,NE,40,13.0,-999.0,-999,-99.99,,,-99.99,,2013-01-11 14:00:00,
2013-01-11 06:33:00,39.0,-99.9,30.22,NE,40,13.0,-999.0,-999,-99.99,,,-99.99,,2013-01-11 14:33:00,
2013-01-11 06:43:00,39.0,-99.9,30.22,NE,40,13.0,-999.0,-999,-99.99,,,-99.99,,2013-01-11 14:43:00,
2013-01-11 06:53:00,39.0,-99.9,30.22,NE,40,13.0,-999.0,-999,-99.99,,,-99.99,,2013-01-11 14:53:00,
2013-01-11 07:00:00,39.0,-99.9,30.25,NNE,30,9.0,-999.0,-999,-99.99,,,-99.99,,2013-01-11 15:00:00,
2013-01-11 07:33:00,39.0,-99.9,30.25,NNE,30,9.0,-999.0,-999,-99.99,,,-99.99,,2013-01-11 15:33:00,
2013-01-11 07:43:00,39.0,-99.9,30.25,NNE,30,9.0,-999.0,-999,-99.99,,,-99.99,,2013-01-11 15:43:00,
2013-01-11 07:53:00,39.0,-99.9,30.25,NNE,30,9.0,-999.0,-999,-99.99,,,-99.99,,2013-01-11 15:53:00,
2013-01-11 08:00:00,38.0,-99.9,30.28,NNE,30,11.0,-999.0,-999,-99.99,,,-99.99,,2013-01-11 16:00:00,
2013-01-11 08:33:00,38.0,-99.9,30.28,NNE,30,11.0,-999.0,-999,-99.99,,,-99.99,,2013-01-11 16:33:00,
2013-01-11 08:43:00,38.0,-99.9,30.28,NNE,30,11.0,-999.0,-999,-99.99,,,-99.99,,2013-01-11 16:43:00,
2013-01-11 08:53:00,38.0,-99.9,30.28,NNE,30,11.0,-999.0,-999,-99.99,,,-99.99,,2013-01-11 16:53:00,
2013-01-11 09:00:00,38.0,-99.9,30.29,East,100,7.0,-999.0,-999,-99.99,,,-99.99,,2013-01-11 17:00:00,
2013-01-11 09:33:00,38.0,-99.9,30.29,East,100,7.0,-999.0,-999,-99.99,,,-99.99,,2013-01-11 17:33:00,
2013-01-11 09:43:00,38.0,-99.9,30.29,East,100,7.0,-999.0,-999,-99.99,,,-99.99,,2013-01-11 17:43:00,
2013-01-11 09:53:00,38.0,-99.9,30.29,East,100,7.0,-999.0,-999,-99.99,,,-99.99,,2013-01-11 17:53:00,
2013-01-11 10:00:00,38.0,-99.9,30.31,East,90,7.0,-999.0,-999,-99.99,,,-99.99,,2013-01-11 18:00:00,
2013-01-11 10:33:00,38.0,-99.9,30.31,East,90,7.0,-999.0,-999,-99.99,,,-99.99,,2013-01-11 18:33:00,
2013-01-11 10:43:00,38.0,-99.9,30.31,East,90,7.0,-999.0,-999,-99.99,,,-99.99,,2013-01-11 18:43:00,
2013-01-11 10:53:00,38.0,-99.9,30.31,East,90,7.0,-999.0,-999,-99.99,,,-99.99,,2013-01-11 18:53:00,
2013-01-11 11:00:00,39.0,-99.9,30.32,NNW,330,4.0,-999.0,-999,-99.99,,,-99.99,,2013-01-11 19:00:00,
2013-01-11 11:33:00,39.0,-99.9,30.32,NNW,330,4.0,-999.0,-999,-99.99,,,-99.99,,2013-01-11 19:33:00,
2013-01-11 11:43:00,39.0,-99.9,30.32,NNW,330,4.0,-999.0,-999,-99.99,,,-99.99,,2013-01-11 19:43:00,
2013-01-11 11:54:00,39.0,-99.9,30.32,NNW,330,4.0,-999.0,-999,-99.99,,,-99.99,,2013-01-11 19:54:00,
2013-01-11 12:00:00,39.0,-99.9,30.31,East,80,7.0,-999.0,-999,-99.99,,,-99.99,,2013-01-11 20:00:00,
2013-01-11 12:33:00,39.0,-99.9,30.31,East,80,7.0,-999.0,-999,-99.99,,,-99.99,,2013-01-11 20:33:00,
2013-01-11 12:43:00,39.0,-99.9,30.31,East,80,7.0,-999.0,-999,-99.99,,,-99.99,,2013-01-11 20:43:00,
2013-01-11 12:53:00,39.0,-99.9,30.31,East,80,7.0,-999.0,-999,-99.99,,,-99.99,,2013-01-11 20:53:00,
2013-01-11 13:00:00,39.0,-99.9,30.30,East,80,9.0,-999.0,-999,-99.99,,,-99.99,,2013-01-11 21:00:00,
2013-01-11 13:33:00,39.0,-99.9,30.30,East,80,9.0,-999.0,-999,-99.99,,,-99.99,,2013-01-11 21:33:00,
2013-01-11 13:43:00,39.0,-99.9,30.30,East,80,9.0,-999.0,-999,-99.99,,,-99.99,,2013-01-11 21:43:00,
2013-01-11 13:53:00,39.0,-99.9,30.30,East,80,9.0,-999.0,-999,-99.99,,,-99.99,,2013-01-11 21:53:00,
2013-01-11 14:00:00,39.0,-99.9,30.30,ENE,70,2.0,-999.0,-999,-99.99,,,-99.99,,2013-01-11 22:00:00,
2013-01-11 14:33:00,39.0,-99.9,30.30,ENE,70,2.0,-999.0,-999,-99.99,,,-99.99,,2013-01-11 22:33:00,
2013-01-11 14:43:00,39.0,-99.9,30.30,ENE,70,2.0,-999.0,-999,-99.99,,,-99.99,,2013-01-11 22:43:00,
2013-01-11 14:53:00,39.0,-99.9,30.30,ENE,70,2.0,-999.0,-999,-99.99,,,-99.99,,2013-01-11 22:53:00,
2013-01-11 15:00:00,39.0,-99.9,30.32,ENE,60,2.0,-999.0,-999,-99.99,,,-99.99,,2013-01-11 23:00:00,
2013-01-11 15:33:00,39.0,-99.9,30.32,ENE,60,2.0,-999.0,-999,-99.99,,,-99.99,,2013-01-11 23:33:00,
2013-01-11 15:43:00,39.0,-99.9,30.32,ENE,60,2.0,-999.0,-999,-99.99,,,-99.99,,2013-01-11 23:43:00,
2013-01-11 15:54:00,39.0,-99.9,30.32,ENE,60,2.0,-999.0,-999,-99.99,,,-99.99,,2013-01-11 23:54:00,
2013-01-11 16:00:00,38.0,-99.9,30.32,NNE,30,9.0,-999.0,-999,-99.99,,,-99.99,,2013-01-12 00:00:00,
2013-01-11 16:33:00,38.0,-99.9,30.32,NNE,30,9.0,-999.0,-999,-99.99,,,-99.99,,2013-01-12 00:33:00,
2013-01-11 16:43:00,38.0,-99.9,30.32,NNE,30,9.0,-999.0,-999,-99.99,,,-99.99,,2013-01-12 00:43:00,
2013-01-11 16:53:00,38.0,-99.9,30.32,NNE,30,9.0,-999.0,-999,-99.99,,,-99.99,,2013-01-12 00:53:00,
2013-01-11 17:00:00,35.0,-99.9,30.33,SSE,150,7.0,-999.0,-999,-99.99,,,-99.99,,2013-01-12 01:00:00,
2013-01-11 17:33:00,35.0,-99.9,30.33,SSE,150,7.0,-999.0,-999,-99.99,,,-99.99,,2013-01-12 01:33:00,
2013-01-11 17:43:00,35.0,-99.9,30.33,SSE,150,7.0,-999.0,-999,-99.99,,,-99.99,,2013-01-12 01:43:00,
2013-01-11 17:53:00,35.0,-99.9,30.33,SSE,150,7.0,-999.0,-999,-99.99,,,-99.99,,2013-01-12 01:53:00,
2013-01-11 18:00:00,35.0,-99.9,30.32,SSE,150,9.0,-999.0,-999,-99.99,,,-99.99,,2013-01-12 02:00:00,
2013-01-11 18:33:00,35.0,-99.9,30.32,SSE,150,9.0,-999.0,-999,-99.99,,,-99.99,,2013-01-12 02:33:00,
2013-01-11 18:43:00,35.0,-99.9,30.32,SSE,150,9.0,-999.0,-999,-99.99,,,-99.99,,2013-01-12 02:43:00,
2013-01-11 18:53:00,35.0,-99.9,30.32,SSE,150,9.0,-999.0,-999,-99.99,,,-99.99,,2013-01-12 02:53:00,
2013-01-11 19:00:00,35.0,-99.9,30.32,SSE,150,7.0,-999.0,-999,-99.99,,,-99.99,,2013-01-12 03:00:00,
2013-01-11 19:33:00,35.0,-99.9,30.32,SSE,150,7.0,-999.0,-999,-99.99,,,-99.99,,2013-01-12 03:33:00,
2013-01-11 19:43:00,35.0,-99.9,30.32,SSE,150,7.0,-999.0,-999,-99.99,,,-99.99,,2013-01-12 03:43:00,
2013-01-11 19:53:00,35.0,-99.9,30.32,SSE,150,7.0,-999.0,-999,-99.99,,,-99.99,,2013-01-12 03:53:00,
2013-01-11 20:00:00,35.0,-99.9,30.32,SSE,160,9.0,-999.0,-999,-99.99,,,-99.99,,2013-01-12 04:00:00,
2013-01-11 20:33:00,35.0,-99.9,30.32,SSE,160,9.0,-999.0,-999,-99.99,,,-99.99,,2013-01-12 04:33:00,
2013-01-11 20:43:00,35.0,-99.9,30.32,SSE,160,9.0,-999.0,-999,-99.99,,,-99.99,,2013-01-12 04:43:00,
2013-01-11 20:53:00,35.0,-99.9,30.32,SSE,160,9.0,-999.0,-999,-99.99,,,-99.99,,2013-01-12 04:53:00,
2013-01-11 21:00:00,34.0,-99.9,30.32,SSE,150,9.0,-999.0,-999,-99.99,,,-99.99,,2013-01-12 05:00:00,
2013-01-11 21:32:00,34.0,-99.9,30.32,SSE,150,9.0,-999.0,-999,-99.99,,,-99.99,,2013-01-12 05:32:00,
2013-01-11 21:42:00,34.0,-99.9,30.32,SSE,150,9.0,-999.0,-999,-99.99,,,-99.99,,2013-01-12 05:42:00,
2013-01-11 21:53:00,34.0,-99.9,30.32,SSE,150,9.0,-999.0,-999,-99.99,,,-99.99,,2013-01-12 05:53:00,
2013-01-11 22:00:00,34.0,-99.9,30.32,SSE,150,7.0,-999.0,-999,-99.99,,,-99.99,,2013-01-12 06:00:00,
2013-01-11 22:33:00,34.0,-99.9,30.32,SSE,150,7.0,-999.0,-999,-99.99,,,-99.99,,2013-01-12 06:33:00,
2013-01-11 22:43:00,34.0,-99.9,30.32,SSE,150,7.0,-999.0,-999,-99.99,,,-99.99,,2013-01-12 06:43:00,
2013-01-11 22:53:00,34.0,-99.9,30.32,SSE,150,7.0,-999.0,-999,-99.99,,,-99.99,,2013-01-12 06:53:00,
2013-01-11 23:00:00,34.0,-99.9,30.31,SE,140,7.0,-999.0,-999,-99.99,,,-99.99,,2013-01-12 07:00:00,
2013-01-11 23:32:00,34.0,-99.9,30.31,SE,140,7.0,-999.0,-999,-99.99,,,-99.99,,2013-01-12 07:32:00,
2013-01-11 23:42:00,34.0,-99.9,30.31,SE,140,7.0,-999.0,-999,-99.99,,,-99.99,,2013-01-12 07:42:00,
2013-01-11 23:53:00,34.0,-99.9,30.31,SE,140,7.0,-999.0,-999,-99.99,,,-99.99,,2013-01-12 07:53:00,